Main page
METAR-TAF:

METAR-TAF

Airports :

Conceição do Araguaia Airport

Conceição do Araguaia, Pará, Brazil

latitude: 08-15S, longitude: 049-17W, elevation: 157 m

Current weather observation

The report was made 27 minutes ago, at 14:00 UTC
Wind 3 kt from the South
Temperature 32°C
Humidity 63%
Pressure 1011 hPa
Visibility 10 km or more
Broken clouds at a height of 2000 ft

METAR: SBAA 141400Z 19003KT 9999 BKN020 32/24 Q1011

Time: 12:27 (14:27 UTC)


TAF: missing

Weather observations and forecasts of more than 4000 airports (METAR and TAF reports).

The available stations are represented by yellow and red dots on the map.

Hover mouse over dot to see the name of the station.

Then click to see weather observations and forecasts.

To change the map : click on the green buttons with a black cross to zoom in, on the green button with a dash to zoom out, or on the green arrows for adjacent maps.


METAR-TAF: